Location: Marsån
(66.4167°N, 22.2833°E)
Time: 12:01:13
(UTC+00:00)

Cosmos 220 Rocket - Pass Details

Date: 24 February 2024
Orbit: 561 x 600 km, 74.0° (Epoch: 15 April)

Event Time Altitude Azimuth Distance (km) Brightness Sun altitude
Rises 16:32:25 0° 221° (SW) 2,752 8.2 -7.5°
Reaches altitude 10° 16:34:36 10° 222° (SW) 1,860 7.3 -7.7°
Maximum altitude 16:38:44 88° 309° (NW) 575 3.9 -8.1°
Drops below altitude 10° 16:42:56 10° 43° (NE) 1,882 6.1 -8.6°
Enters shadow 16:44:15 - 43° (NE) 2,418 6.7 -8.7°
